Location: Bruch
(44.2051°N, 0.4120°E)
Time: 10:02:05
(UTC+00:00)

SAR-Lupe-4 - Pass Details

Date: 29 November 2020
Orbit: 481 x 484 km, 98.2° (Epoch: 09 January)

Event Time Altitude Azimuth Distance (km) Brightness Sun altitude
Rises 05:16:20 0° 171° (S) 2,528 7.5 -20.1°
Reaches altitude 10° 05:18:24 10° 174° (S) 1,654 6.5 -19.8°
Maximum altitude 05:21:56 68° 257° (WSW) 524 3.4 -19.2°
Enters shadow 05:22:33 54° 313° (NW) 594 3.6 -19.0°
